Tracking 20942 objects as of 15-Jul-2020
HD Live streaming from Space Station
objects crossing your sky now

DMSP 5D-2 F11 DEB

Track DMSP 5D-2 F11 DEB now!
10-day predictions


NORAD ID: 29068
Int'l Code: 1991-082BP
Perigee: 671.2 km
Apogee: 746.7 km
Inclination: 98.9 °
Period: 98.8 minutes
Semi major axis: 7079 km
RCS: 0.0124 m2 (small)
Launch date: November 28, 1991
Source: United States (US)
Launch site: AIR FORCE WESTERN TEST RANGE (AFWTR)

Note: This is SATELLITE DEBRIS
aabbcc
Your satellite tracking list
Your tracking list is empty




NASA's NSSDC Master Catalog

Two Line Element Set (TLE):
1 29068U 91082BP  20195.88570854  .00002905  00000-0  64071-3 0  9994
2 29068  98.8670 348.8952 0053346 154.1905 206.1971 14.57334835758234
Source of the keplerian elements: AFSPC